Time,TemperatureF,DewpointF,PressureIn,WindDirection,WindDirectionDegrees,WindSpeedMPH,WindSpeedGustMPH,Humidity,HourlyPrecipIn,Conditions,Clouds,dailyrainin,SoftwareType,DateUTC
2013-09-24 00:00:00,69.2,55.6,29.77,SSE,158,0.0,4.0,62,0.00,,,0.00,Wunderground v.1.15,2013-09-24 05:00:00,
2013-09-24 00:10:00,68.8,55.2,29.77,SSE,158,0.0,4.0,62,0.00,,,0.00,Wunderground v.1.15,2013-09-24 05:10:00,
2013-09-24 00:20:00,68.5,56.3,29.78,SSE,158,0.0,4.0,65,0.00,,,0.00,Wunderground v.1.15,2013-09-24 05:20:00,
2013-09-24 00:30:00,67.6,55.8,29.78,SSE,158,0.0,4.0,66,0.00,,,0.00,Wunderground v.1.15,2013-09-24 05:30:00,
2013-09-24 00:40:00,67.5,55.3,29.78,SSE,158,0.0,4.0,65,0.00,,,0.00,Wunderground v.1.15,2013-09-24 05:40:00,
2013-09-24 00:50:00,67.9,54.8,29.78,SSE,158,0.0,4.0,63,0.00,,,0.00,Wunderground v.1.15,2013-09-24 05:50:00,
2013-09-24 01:00:00,68.6,55.1,29.78,SSE,158,0.0,4.0,62,0.00,,,0.00,Wunderground v.1.15,2013-09-24 06:00:00,
2013-09-24 01:10:00,68.4,55.3,29.78,SSE,158,0.0,4.0,63,0.00,,,0.00,Wunderground v.1.15,2013-09-24 06:10:00,
2013-09-24 01:20:00,68.0,55.4,29.78,SSE,158,0.0,4.0,64,0.00,,,0.00,Wunderground v.1.15,2013-09-24 06:20:00,
2013-09-24 01:30:00,67.6,55.0,29.78,SSE,158,0.0,4.0,64,0.00,,,0.00,Wunderground v.1.15,2013-09-24 06:30:00,
2013-09-24 01:40:00,67.2,54.6,29.78,SSE,158,0.0,4.0,64,0.00,,,0.00,Wunderground v.1.15,2013-09-24 06:40:00,
2013-09-24 01:50:00,67.0,54.8,29.78,SSE,158,0.0,4.0,65,0.00,,,0.00,Wunderground v.1.15,2013-09-24 06:50:00,
2013-09-24 02:00:00,66.9,54.3,29.78,SSE,158,0.0,4.0,64,0.00,,,0.00,Wunderground v.1.15,2013-09-24 07:00:00,
2013-09-24 02:10:00,66.7,55.0,29.79,SSE,158,0.0,4.0,66,0.00,,,0.00,Wunderground v.1.15,2013-09-24 07:10:00,
2013-09-24 02:20:00,66.2,55.7,29.79,SSE,158,0.0,4.0,69,0.00,,,0.00,Wunderground v.1.15,2013-09-24 07:20:00,
2013-09-24 02:30:00,65.8,55.3,29.80,SSE,158,0.0,4.0,69,0.00,,,0.00,Wunderground v.1.15,2013-09-24 07:30:00,
2013-09-24 02:40:00,65.7,54.8,29.80,SSE,158,0.0,4.0,68,0.00,,,0.00,Wunderground v.1.15,2013-09-24 07:40:00,
2013-09-24 02:50:00,65.7,55.6,29.80,SSE,158,0.0,4.0,70,0.00,,,0.00,Wunderground v.1.15,2013-09-24 07:50:00,
2013-09-24 03:00:00,65.4,55.7,29.80,SSE,158,0.0,4.0,71,0.00,,,0.00,Wunderground v.1.15,2013-09-24 08:00:00,
2013-09-24 03:10:00,65.0,56.9,29.80,SSE,158,0.0,4.0,75,0.00,,,0.00,Wunderground v.1.15,2013-09-24 08:10:00,
2013-09-24 03:20:00,64.2,56.1,29.80,SSE,158,0.0,4.0,75,0.00,,,0.00,Wunderground v.1.15,2013-09-24 08:20:00,
2013-09-24 03:30:00,63.6,56.3,29.80,SSE,158,0.0,4.0,77,0.00,,,0.00,Wunderground v.1.15,2013-09-24 08:30:00,
2013-09-24 03:40:00,63.2,56.2,29.80,SSE,158,0.0,4.0,78,0.00,,,0.00,Wunderground v.1.15,2013-09-24 08:40:00,
2013-09-24 03:50:00,63.1,55.8,29.81,SSE,158,0.0,4.0,77,0.00,,,0.00,Wunderground v.1.15,2013-09-24 08:50:00,
2013-09-24 04:00:00,63.1,56.1,29.81,SSE,158,0.0,4.0,78,0.00,,,0.00,Wunderground v.1.15,2013-09-24 09:00:00,
2013-09-24 04:10:00,62.9,56.6,29.81,SSE,158,0.0,4.0,80,0.00,,,0.00,Wunderground v.1.15,2013-09-24 09:10:00,
2013-09-24 04:20:00,62.5,55.9,29.81,SSE,158,0.0,4.0,79,0.00,,,0.00,Wunderground v.1.15,2013-09-24 09:20:00,
2013-09-24 04:30:00,62.5,55.9,29.81,SSE,158,0.0,4.0,79,0.00,,,0.00,Wunderground v.1.15,2013-09-24 09:30:00,
2013-09-24 04:40:00,62.8,55.5,29.81,SSE,158,0.0,4.0,77,0.00,,,0.00,Wunderground v.1.15,2013-09-24 09:40:00,
2013-09-24 04:50:00,63.1,55.4,29.81,SSE,158,0.0,4.0,76,0.00,,,0.00,Wunderground v.1.15,2013-09-24 09:50:00,
2013-09-24 05:00:00,63.2,55.9,29.81,SSE,158,0.0,4.0,77,0.00,,,0.00,Wunderground v.1.15,2013-09-24 10:00:00,
2013-09-24 05:10:00,63.1,55.8,29.81,SSE,158,0.0,4.0,77,0.00,,,0.00,Wunderground v.1.15,2013-09-24 10:10:00,
2013-09-24 05:20:00,62.9,55.6,29.81,SSE,158,0.0,4.0,77,0.00,,,0.00,Wunderground v.1.15,2013-09-24 10:20:00,
2013-09-24 05:30:00,62.8,55.8,29.81,SSE,158,0.0,4.0,78,0.00,,,0.00,Wunderground v.1.15,2013-09-24 10:30:00,
2013-09-24 05:40:00,62.7,56.1,29.81,SSE,158,0.0,4.0,79,0.00,,,0.00,Wunderground v.1.15,2013-09-24 10:40:00,
2013-09-24 05:50:00,62.4,55.8,29.82,SSE,158,0.0,4.0,79,0.00,,,0.00,Wunderground v.1.15,2013-09-24 10:50:00,
2013-09-24 06:00:00,62.1,55.9,29.82,SSE,158,0.0,4.0,80,0.00,,,0.00,Wunderground v.1.15,2013-09-24 11:00:00,
2013-09-24 06:10:00,62.0,56.1,29.82,SSE,158,0.0,4.0,81,0.00,,,0.00,Wunderground v.1.15,2013-09-24 11:10:00,
2013-09-24 06:20:00,61.7,56.1,29.82,SSE,158,0.0,4.0,82,0.00,,,0.00,Wunderground v.1.15,2013-09-24 11:20:00,
2013-09-24 06:30:00,61.6,56.4,29.83,SSE,158,0.0,4.0,83,0.00,,,0.00,Wunderground v.1.15,2013-09-24 11:30:00,
2013-09-24 06:40:00,61.4,56.5,29.82,SSE,158,0.0,4.0,84,0.00,,,0.00,Wunderground v.1.15,2013-09-24 11:40:00,
2013-09-24 06:50:00,61.3,57.1,29.83,SSE,158,0.0,4.0,86,0.00,,,0.00,Wunderground v.1.15,2013-09-24 11:50:00,
2013-09-24 07:00:00,60.8,56.6,29.83,SSE,158,0.0,4.0,86,0.00,,,0.00,Wunderground v.1.15,2013-09-24 12:00:00,
2013-09-24 07:10:00,60.6,56.4,29.83,SSE,158,0.0,4.0,86,0.00,,,0.00,Wunderground v.1.15,2013-09-24 12:10:00,
2013-09-24 07:20:00,60.6,56.1,29.83,SSE,158,0.0,4.0,85,0.00,,,0.00,Wunderground v.1.15,2013-09-24 12:20:00,
2013-09-24 07:30:00,60.5,56.3,29.83,SSE,158,0.0,4.0,86,0.00,,,0.00,Wunderground v.1.15,2013-09-24 12:30:00,
2013-09-24 07:40:00,60.5,56.6,29.84,SSE,158,0.0,4.0,87,0.00,,,0.00,Wunderground v.1.15,2013-09-24 12:40:00,
2013-09-24 07:50:00,61.0,57.4,29.84,SSE,158,0.0,4.0,88,0.00,,,0.00,Wunderground v.1.15,2013-09-24 12:50:00,
2013-09-24 08:00:00,61.7,57.8,29.84,SSE,158,0.0,4.0,87,0.00,,,0.00,Wunderground v.1.15,2013-09-24 13:00:00,
2013-09-24 08:10:00,63.4,57.8,29.84,SSE,158,0.0,4.0,82,0.00,,,0.00,Wunderground v.1.15,2013-09-24 13:10:00,
2013-09-24 08:20:00,65.2,58.5,29.85,ENE,72,0.0,4.0,79,0.00,,,0.00,Wunderground v.1.15,2013-09-24 13:20:00,
2013-09-24 08:30:00,65.9,58.5,29.85,ENE,72,0.0,4.0,77,0.00,,,0.00,Wunderground v.1.15,2013-09-24 13:30:00,
2013-09-24 08:40:00,66.3,58.1,29.85,ENE,72,0.0,4.0,75,0.00,,,0.00,Wunderground v.1.15,2013-09-24 13:40:00,
2013-09-24 08:50:00,66.9,58.3,29.85,ENE,72,0.0,4.0,74,0.00,,,0.00,Wunderground v.1.15,2013-09-24 13:50:00,
2013-09-24 09:00:00,67.9,58.5,29.86,ENE,72,0.0,4.0,72,0.00,,,0.00,Wunderground v.1.15,2013-09-24 14:00:00,
2013-09-24 09:10:00,69.4,60.0,29.87,ENE,72,0.0,4.0,72,0.00,,,0.00,Wunderground v.1.15,2013-09-24 14:10:00,
2013-09-24 09:20:00,70.8,60.1,29.87,ENE,72,0.0,4.0,69,0.00,,,0.00,Wunderground v.1.15,2013-09-24 14:20:00,
2013-09-24 09:30:00,71.5,60.0,29.88,ENE,69,1.0,4.0,67,0.00,,,0.00,Wunderground v.1.15,2013-09-24 14:30:00,
2013-09-24 09:40:00,72.2,60.2,29.88,ENE,69,1.0,1.0,66,0.00,,,0.00,Wunderground v.1.15,2013-09-24 14:40:00,
2013-09-24 09:50:00,73.0,60.1,29.88,ENE,69,0.0,4.0,64,0.00,,,0.00,Wunderground v.1.15,2013-09-24 14:50:00,
2013-09-24 10:00:00,74.2,61.2,29.88,ENE,69,0.0,4.0,64,0.00,,,0.00,Wunderground v.1.15,2013-09-24 15:00:00,
2013-09-24 10:10:00,75.5,60.6,29.89,ENE,69,0.0,4.0,60,0.00,,,0.00,Wunderground v.1.15,2013-09-24 15:10:00,
2013-09-24 10:20:00,76.9,61.0,29.89,ENE,69,0.0,4.0,58,0.00,,,0.00,Wunderground v.1.15,2013-09-24 15:20:00,
2013-09-24 10:30:00,77.4,60.5,29.89,ENE,69,0.0,4.0,56,0.00,,,0.00,Wunderground v.1.15,2013-09-24 15:30:00,
2013-09-24 10:40:00,78.5,60.5,29.89,ENE,69,0.0,4.0,54,0.00,,,0.00,Wunderground v.1.15,2013-09-24 15:40:00,
2013-09-24 10:50:00,79.0,60.4,29.89,ENE,69,0.0,4.0,53,0.00,,,0.00,Wunderground v.1.15,2013-09-24 15:50:00,
2013-09-24 11:00:00,79.3,60.7,29.89,ENE,69,0.0,4.0,53,0.00,,,0.00,Wunderground v.1.15,2013-09-24 16:00:00,
2013-09-24 11:10:00,80.5,61.8,29.89,ENE,69,0.0,4.0,53,0.00,,,0.00,Wunderground v.1.15,2013-09-24 16:10:00,
2013-09-24 11:20:00,80.7,61.4,29.89,ENE,68,0.0,4.0,52,0.00,,,0.00,Wunderground v.1.15,2013-09-24 16:20:00,
2013-09-24 11:30:00,81.1,62.3,29.89,ENE,63,0.0,4.0,53,0.00,,,0.00,Wunderground v.1.15,2013-09-24 16:30:00,
2013-09-24 11:40:00,82.3,63.5,29.89,ENE,63,0.0,4.0,53,0.00,,,0.00,Wunderground v.1.15,2013-09-24 16:40:00,
2013-09-24 11:50:00,82.6,62.6,29.89,ENE,57,0.0,4.0,51,0.00,,,0.00,Wunderground v.1.15,2013-09-24 16:50:00,
2013-09-24 12:00:00,82.6,62.6,29.88,NNW,335,1.0,5.0,51,0.00,,,0.00,Wunderground v.1.15,2013-09-24 17:00:00,
2013-09-24 12:10:00,82.7,62.7,29.88,NNW,333,1.0,1.0,51,0.00,,,0.00,Wunderground v.1.15,2013-09-24 17:10:00,
2013-09-24 12:20:00,83.4,62.8,29.88,NW,318,1.0,4.0,50,0.00,,,0.00,Wunderground v.1.15,2013-09-24 17:20:00,
2013-09-24 12:30:00,83.6,63.0,29.88,NW,311,1.0,1.0,50,0.00,,,0.00,Wunderground v.1.15,2013-09-24 17:30:00,
2013-09-24 12:40:00,84.2,63.5,29.87,SSE,161,1.0,1.0,50,0.00,,,0.00,Wunderground v.1.15,2013-09-24 17:40:00,
2013-09-24 12:50:00,84.8,62.9,29.87,West,268,1.0,1.0,48,0.00,,,0.00,Wunderground v.1.15,2013-09-24 17:50:00,
2013-09-24 13:00:00,85.6,61.8,29.87,WSW,255,1.0,1.0,45,0.00,,,0.00,Wunderground v.1.15,2013-09-24 18:00:00,
2013-09-24 13:10:00,85.8,62.6,29.86,WSW,258,1.0,1.0,46,0.00,,,0.00,Wunderground v.1.15,2013-09-24 18:10:00,
2013-09-24 13:20:00,85.9,62.7,29.86,WSW,255,0.0,4.0,46,0.00,,,0.00,Wunderground v.1.15,2013-09-24 18:20:00,
2013-09-24 13:30:00,87.1,63.2,29.86,WSW,255,0.0,4.0,45,0.00,,,0.00,Wunderground v.1.15,2013-09-24 18:30:00,
2013-09-24 13:40:00,87.3,60.0,29.85,WSW,255,0.0,4.0,40,0.00,,,0.00,Wunderground v.1.15,2013-09-24 18:40:00,
2013-09-24 13:50:00,87.7,60.4,29.84,WSW,257,0.0,4.0,40,0.00,,,0.00,Wunderground v.1.15,2013-09-24 18:50:00,
2013-09-24 14:00:00,88.0,62.7,29.84,WNW,299,0.0,4.0,43,0.00,,,0.00,Wunderground v.1.15,2013-09-24 19:00:00,
2013-09-24 14:10:00,88.4,59.6,29.84,WNW,299,0.0,4.0,38,0.00,,,0.00,Wunderground v.1.15,2013-09-24 19:10:00,
2013-09-24 14:20:00,88.7,61.3,29.83,WNW,299,0.0,4.0,40,0.00,,,0.00,Wunderground v.1.15,2013-09-24 19:20:00,
2013-09-24 14:30:00,89.0,60.1,29.83,NW,317,1.0,4.0,38,0.00,,,0.00,Wunderground v.1.15,2013-09-24 19:30:00,
2013-09-24 14:40:00,88.7,59.8,29.83,NNW,344,1.0,1.0,38,0.00,,,0.00,Wunderground v.1.15,2013-09-24 19:40:00,
2013-09-24 14:50:00,89.4,58.1,29.82,NNW,341,1.0,1.0,35,0.00,,,0.00,Wunderground v.1.15,2013-09-24 19:50:00,
2013-09-24 15:00:00,89.7,59.2,29.82,NNW,346,1.0,1.0,36,0.00,,,0.00,Wunderground v.1.15,2013-09-24 20:00:00,
2013-09-24 15:10:00,90.1,58.8,29.82,NNW,347,0.0,4.0,35,0.00,,,0.00,Wunderground v.1.15,2013-09-24 20:10:00,
2013-09-24 15:20:00,90.2,59.6,29.81,North,350,3.0,3.0,36,0.00,,,0.00,Wunderground v.1.15,2013-09-24 20:20:00,
2013-09-24 15:30:00,90.5,60.7,29.81,North,355,0.0,4.0,37,0.00,,,0.00,Wunderground v.1.15,2013-09-24 20:30:00,
2013-09-24 15:40:00,90.5,59.9,29.81,NE,45,1.0,1.0,36,0.00,,,0.00,Wunderground v.1.15,2013-09-24 20:40:00,
2013-09-24 15:50:00,90.1,59.5,29.80,ENE,67,1.0,1.0,36,0.00,,,0.00,Wunderground v.1.15,2013-09-24 20:50:00,
2013-09-24 16:00:00,90.6,59.2,29.81,ENE,67,0.0,4.0,35,0.00,,,0.00,Wunderground v.1.15,2013-09-24 21:00:00,
2013-09-24 16:10:00,91.4,58.3,29.80,WNW,287,1.0,1.0,33,0.00,,,0.00,Wunderground v.1.15,2013-09-24 21:10:00,
2013-09-24 16:20:00,92.0,56.1,29.80,WNW,293,1.0,4.0,30,0.00,,,0.00,Wunderground v.1.15,2013-09-24 21:20:00,
2013-09-24 16:30:00,92.2,56.3,29.80,WNW,294,0.0,4.0,30,0.00,,,0.00,Wunderground v.1.15,2013-09-24 21:30:00,
2013-09-24 16:40:00,92.6,55.7,29.80,WNW,290,0.0,7.0,29,0.00,,,0.00,Wunderground v.1.15,2013-09-24 21:40:00,
2013-09-24 16:50:00,92.5,55.6,29.79,WNW,286,1.0,4.0,29,0.00,,,0.00,Wunderground v.1.15,2013-09-24 21:50:00,
2013-09-24 17:00:00,92.0,57.0,29.79,NW,308,1.0,4.0,31,0.00,,,0.00,Wunderground v.1.15,2013-09-24 22:00:00,
2013-09-24 17:10:00,91.8,55.0,29.79,NW,306,1.0,1.0,29,0.00,,,0.00,Wunderground v.1.15,2013-09-24 22:10:00,
2013-09-24 17:20:00,91.6,53.9,29.79,NW,307,0.0,4.0,28,0.00,,,0.00,Wunderground v.1.15,2013-09-24 22:20:00,
2013-09-24 17:30:00,91.5,55.7,29.79,NNW,339,1.0,1.0,30,0.00,,,0.00,Wunderground v.1.15,2013-09-24 22:30:00,
2013-09-24 17:40:00,91.3,57.3,29.78,NNW,339,0.0,4.0,32,0.00,,,0.00,Wunderground v.1.15,2013-09-24 22:40:00,
2013-09-24 17:50:00,91.2,55.4,29.79,NNW,339,0.0,4.0,30,0.00,,,0.00,Wunderground v.1.15,2013-09-24 22:50:00,
2013-09-24 18:00:00,90.9,56.1,29.79,NNW,339,0.0,4.0,31,0.00,,,0.00,Wunderground v.1.15,2013-09-24 23:00:00,
2013-09-24 18:10:00,90.5,57.5,29.79,NNW,339,0.0,4.0,33,0.00,,,0.00,Wunderground v.1.15,2013-09-24 23:10:00,
2013-09-24 18:20:00,90.2,56.4,29.79,NNW,339,0.0,4.0,32,0.00,,,0.00,Wunderground v.1.15,2013-09-24 23:20:00,
2013-09-24 18:30:00,89.8,57.7,29.79,NNW,339,0.0,4.0,34,0.00,,,0.00,Wunderground v.1.15,2013-09-24 23:30:00,
2013-09-24 18:40:00,88.7,59.1,29.79,NNW,339,0.0,4.0,37,0.00,,,0.00,Wunderground v.1.15,2013-09-24 23:40:00,
2013-09-24 18:50:00,87.3,58.6,29.79,NNW,339,0.0,4.0,38,0.00,,,0.00,Wunderground v.1.15,2013-09-24 23:50:00,
2013-09-24 19:00:00,86.8,58.1,29.79,NNW,339,0.0,4.0,38,0.00,,,0.00,Wunderground v.1.15,2013-09-25 00:00:00,
2013-09-24 19:10:00,86.5,60.0,29.79,NNW,339,0.0,4.0,41,0.00,,,0.00,Wunderground v.1.15,2013-09-25 00:10:00,
2013-09-24 19:20:00,85.8,58.7,29.79,NNW,339,0.0,4.0,40,0.00,,,0.00,Wunderground v.1.15,2013-09-25 00:20:00,
2013-09-24 19:30:00,85.0,60.0,29.80,NNW,339,0.0,4.0,43,0.00,,,0.00,Wunderground v.1.15,2013-09-25 00:30:00,
2013-09-24 19:40:00,83.9,59.7,29.79,NNW,339,0.0,4.0,44,0.00,,,0.00,Wunderground v.1.15,2013-09-25 00:40:00,
2013-09-24 19:50:00,83.2,60.3,29.79,NNW,339,0.0,4.0,46,0.00,,,0.00,Wunderground v.1.15,2013-09-25 00:50:00,
2013-09-24 20:00:00,82.3,60.1,29.79,NNW,339,0.0,4.0,47,0.00,,,0.00,Wunderground v.1.15,2013-09-25 01:00:00,
2013-09-24 20:10:00,81.2,60.8,29.80,NNW,339,0.0,4.0,50,0.00,,,0.00,Wunderground v.1.15,2013-09-25 01:10:00,
2013-09-24 20:20:00,80.3,60.0,29.80,NNW,339,0.0,4.0,50,0.00,,,0.00,Wunderground v.1.15,2013-09-25 01:20:00,
2013-09-24 20:30:00,79.9,60.2,29.80,NNW,339,0.0,4.0,51,0.00,,,0.00,Wunderground v.1.15,2013-09-25 01:30:00,
2013-09-24 20:40:00,79.5,60.3,29.81,NNW,339,0.0,4.0,52,0.00,,,0.00,Wunderground v.1.15,2013-09-25 01:40:00,
2013-09-24 20:50:00,79.6,60.4,29.81,NNW,339,1.0,1.0,52,0.00,,,0.00,Wunderground v.1.15,2013-09-25 01:50:00,
2013-09-24 21:00:00,79.5,60.9,29.82,NNW,339,0.0,4.0,53,0.00,,,0.00,Wunderground v.1.15,2013-09-25 02:00:00,
2013-09-24 21:10:00,79.2,61.1,29.82,NNW,339,0.0,4.0,54,0.00,,,0.00,Wunderground v.1.15,2013-09-25 02:10:00,
2013-09-24 21:20:00,79.2,61.6,29.82,NNW,339,1.0,1.0,55,0.00,,,0.00,Wunderground v.1.15,2013-09-25 02:20:00,
2013-09-24 21:30:00,78.6,61.6,29.83,NNW,339,0.0,4.0,56,0.00,,,0.00,Wunderground v.1.15,2013-09-25 02:30:00,
2013-09-24 21:40:00,78.2,61.7,29.83,NNW,339,0.0,4.0,57,0.00,,,0.00,Wunderground v.1.15,2013-09-25 02:40:00,
2013-09-24 21:50:00,77.9,61.4,29.83,NNW,339,0.0,4.0,57,0.00,,,0.00,Wunderground v.1.15,2013-09-25 02:50:00,
2013-09-24 22:00:00,77.8,61.8,29.83,NNW,339,0.0,4.0,58,0.00,,,0.00,Wunderground v.1.15,2013-09-25 03:00:00,
2013-09-24 22:10:00,77.6,61.7,29.83,NNW,339,0.0,4.0,58,0.00,,,0.00,Wunderground v.1.15,2013-09-25 03:10:00,
2013-09-24 22:20:00,77.6,61.7,29.83,NNW,339,0.0,4.0,58,0.00,,,0.00,Wunderground v.1.15,2013-09-25 03:20:00,
2013-09-24 22:30:00,77.4,61.9,29.84,NNW,339,0.0,4.0,59,0.00,,,0.00,Wunderground v.1.15,2013-09-25 03:30:00,
2013-09-24 22:40:00,77.0,61.1,29.84,NNW,339,0.0,4.0,58,0.00,,,0.00,Wunderground v.1.15,2013-09-25 03:40:00,
2013-09-24 22:50:00,76.7,61.3,29.83,NNW,339,0.0,4.0,59,0.00,,,0.00,Wunderground v.1.15,2013-09-25 03:50:00,
2013-09-24 23:00:00,76.1,61.2,29.83,NNW,339,0.0,4.0,60,0.00,,,0.00,Wunderground v.1.15,2013-09-25 04:00:00,
2013-09-24 23:10:00,75.8,60.9,29.83,NNW,339,0.0,4.0,60,0.00,,,0.00,Wunderground v.1.15,2013-09-25 04:10:00,
2013-09-24 23:20:00,75.5,60.6,29.83,NNW,339,0.0,4.0,60,0.00,,,0.00,Wunderground v.1.15,2013-09-25 04:20:00,
2013-09-24 23:30:00,75.2,60.4,29.83,NNW,339,0.0,4.0,60,0.00,,,0.00,Wunderground v.1.15,2013-09-25 04:30:00,
2013-09-24 23:40:00,75.1,60.3,29.83,NNW,339,0.0,4.0,60,0.00,,,0.00,Wunderground v.1.15,2013-09-25 04:40:00,
2013-09-24 23:50:00,74.9,60.1,29.83,NNW,339,0.0,4.0,60,0.00,,,0.00,Wunderground v.1.15,2013-09-25 04:50:00,